User: anonymous   Login
Location: Unspecified
(50.7746°N, 0.0000°E)
Time: 03:39:54
(UTC+00:00)
Language:

Meteor 2-1 Rocket - Orbit

View from above orbital plane
View from above orbital plane
View from above satellite
View from above satellite

Ground track
Ground track

The orbit is defined by the following mean orbital elements,

1 08027U          26088.08672037 +.00000000 +00000-0 +70304-4 0 00005
2 08027  81.2984 206.0529 0057071 237.6417 121.9222 14.07766590    09
Epoch (UTC): 29 March 2026 02:04:52
Eccentricity: 0.0057071
inclination: 81.2984°
perigee height: 826 km
apogee height: 908 km
right ascension of ascending node: 206.0529°
argument of perigee: 237.6417°
revolutions per day: 14.07766590
mean anomaly at epoch: 121.9222°

The dashed part of the orbit path shows where the satellite is in the earth's shadow,  

DLR